This demonstration page uses our WeatherBlox Daily Observations layout. Learn more.

Left ArrowRight Arrow

Hourly Observations for February 29, 2020

Temp ( °F °C ) Dew Point ( °F °C ) Humidity (%) Winds ( mph kmh ) Pressure ( in mb ) Visibility ( mi km ) Precip ( " mm )
12:53 am 00:53 Clear 41 5 25 -3.9 53 53 SW 16 26 29.64 1004 10 16 0.00 0.00
1:53 am 01:53 Clear 41 5 24 -4.4 51 51 SW 17 28 29.62 1003 10 16 0.00 0.00
2:53 am 02:53 Clear 42 5.6 24 -4.4 49 49 SW 16 26 29.60 1002 10 16 0.00 0.00
3:53 am 03:53 Clear 40 4.4 24 -4.4 53 53 SW 14 22 29.57 1002 10 16 0.00 0.00
4:53 am 04:53 Clear 37 2.8 24 -4.4 59 59 WSW 12 19 29.58 1002 10 16 0.00 0.00
5:53 am 05:53 Clear 35 1.7 24 -4.4 64 64 SW 12 19 29.59 1002 10 16 0.00 0.00
6:53 am 06:53 Clear 36 2.2 24 -4.4 62 62 SW 14 22 29.62 1003 10 16 0.00 0.00
7:53 am 07:53 Mostly Cloudy 40 4.4 24 -4.4 53 53 WSW 16 26 29.62 1003 10 16 0.00 0.00
8:53 am 08:53 Cloudy 46 7.8 26 -3.3 46 46 WSW 23 37 29.60 1003 10 16 0.00 0.00
9:53 am 09:53 Sunny 46 7.8 27 -2.8 47 47 SW 20 31 29.62 1003 10 16 0.00 0.00
10:53 am 10:53 Sunny 49 9.4 19 -7.2 31 31 WSW 29 46 29.62 1003 10 16 0.00 0.00
11:53 am 11:53 Mostly Cloudy 46 7.8 15 -9.4 29 29 WSW 26 43 29.63 1003 10 16 0.00 0.00
12:53 pm 12:53 Mostly Sunny 49 9.4 13 -10.6 23 23 WSW 39 63 29.61 1003 10 16 0.00 0.00
1:53 pm 13:53 Sunny 47 8.3 15 -9.4 28 28 WSW 28 44 29.60 1002 10 16 0.00 0.00
2:53 pm 14:53 Sunny 48 8.9 14 -10 25 25 WSW 36 57 29.60 1002 10 16 0.00 0.00
3:53 pm 15:53 Sunny 44 6.7 17 -8.3 34 34 WSW 31 50 29.60 1002 10 16 0.00 0.00
4:53 pm 16:53 Sunny 46 7.8 16 -8.9 30 30 WSW 26 43 29.62 1003 10 16 0.00 0.00
5:53 pm 17:53 Sunny 41 5 17 -8.3 38 38 W 28 44 29.66 1005 10 16 0.00 0.00
6:53 pm 18:53 Clear 38 3.3 20 -6.7 48 48 W 24 39 29.69 1006 10 16 0.00 0.00
7:53 pm 19:53 Mostly Cloudy 37 2.8 24 -4.4 59 59 WNW 20 31 29.72 1007 10 16 0.00 0.00
8:53 pm 20:53 Partly Cloudy 33 0.6 27 -2.8 78 78 WNW 24 39 29.76 1008 10 16 0.00 0.00
9:10 pm 21:10 Mostly Cloudy 34 1 27 -3 75 75 WNW 24 39 29.82 1010 10 16 0.00 0.00
9:22 pm 21:22 Mostly Cloudy 34 1 25 -4 70 70 WNW 22 35 29.82 1010 10 16 0.00 0.00
9:53 pm 21:53 Partly Cloudy 32 0 26 -3.3 79 79 W 18 30 29.80 1009 10 16 0.00 0.00
10:32 pm 22:32 Mostly Cloudy 31 -0.6 26 -3.3 82 82 W 17 28 29.88 1012 10 16 0.00 0.00
10:53 pm 22:53 Cloudy 32 0 26 -3.3 79 79 W 20 31 29.83 1010 10 16 0.00 0.00
11:17 pm 23:17 Mostly Cloudy 31 -0.6 26 -3.3 82 82 W 17 28 29.90 1012 10 16 0.00 0.00
11:42 pm 23:42 Cloudy 33 0.6 26 -3.3 75 75 WNW 21 33 29.89 1012 10 16 0.00 0.00
11:53 pm 23:53 Cloudy 33 0.6 26 -3.3 75 75 WNW 23 37 29.85 1011 10 16 0.00 0.00

Powered by AerisWeather